Location: Winterland
(47.1574°N, 55.3067°W)
Time: 15:08:33
(UTC+00:00)

Tiangong - Pass Details

Date: 22 August 2022
Orbit: 377 x 382 km, 41.5° (Epoch: 27 September)

Event Time Altitude Azimuth Distance (km) Brightness Sun altitude
Rises 23:41:41 0° 259° (W) 2,241 2.6 -10.4°
Reaches altitude 10° 23:43:56 10° 246° (WSW) 1,387 1.2 -10.7°
Maximum altitude 23:46:37 26° 187° (S) 780 -0.8 -11.1°
Enters shadow 23:48:10 18° 143° (SE) 1,019 -0.6 -11.4°
